Tracking 30995 objects as of 7-Jul-2025
HD Live streaming from Space Station
objects crossing your sky now

OBJECT E

Track OBJECT E now!
10-day predictions


NORAD ID: 45915
Int'l Code: 2019-079E
Perigee: 501.5 km
Apogee: 747.8 km
Inclination: 97.7 °
Period: 97.1 minutes
Semi major axis: 6995 km
RCS: Unknown
Launch date: November 25, 2019
Source: Commonwealth of Independent States (former USSR) (CIS)
Launch site: PLESETSK MISSILE AND SPACE COMPLEX (PKMTR)
Your satellite tracking list
Your tracking list is empty




NASA's NSSDC Master Catalog

Two Line Element Set (TLE):
1 45915U 19079E   25187.88704952  .00002462  00000-0  23170-3 0  9996
2 45915  97.6670 200.3061 0175990  44.7812 316.7455 14.83750571268413
Source of the keplerian elements: AFSPC